Fort Nelson, British Columbia

7:00 PM PST on January 21, 2018 (GMT -0800)
Fort Nelson

Weather History for CYYE - October, 2012

Change the Weather History Date:

Monday, October 8, 2012

  Actual Average Record
Temperature  
Mean Temperature 40 °F -  
Max Temperature 46 °F 36 °F 60 °F (2003)
Min Temperature 33 °F 18 °F 17 °F (1997)
Degree Days  
Heating Degree Days 26    
Moisture  
Dew Point 31 °F    
Average Humidity 70    
Maximum Humidity 81    
Minimum Humidity 47    
Precipitation  
Precipitation 0.00 in 0.04 in - ()
Sea Level Pressure  
Sea Level Pressure 30.16 in    
Wind  
Wind Speed 2 mph ()    
Max Wind Speed 5 mph    
Max Gust Speed -    
Visibility 17.4 miles    
Events      
Averages and records for this station are not official NWS values.
T = Trace of Precipitation, MM = Missing Value Source: Averaged Metar Reports

Daily Weather History Graph

Daily Weather History Graph

Search for Another Location

Airport or City:

Trip Planner

Search our weather history database for the weather conditions in past years. The results will help you decide how hot, cold, wet, or windy it might be!

Date:

Astronomy

Oct. 08, 2012 Rise Set
Actual Time 7:32 AM PDT 6:21 PM PDT
Civil Twilight 6:52 AM PDT 7:01 PM PDT
Nautical Twilight 6:05 AM PDT 7:48 PM PDT
Astronomical Twilight 5:17 AM PDT 8:35 PM PDT
Moon 11:56 PM PDT (10/8) 3:38 PM PDT (10/8)
Length of Visible Light 12h 09m
Length of Day
10h 49m
Last Quarter, 45% of the Moon is Illuminated
Oct 8
Last Quarter
Oct 15
New
Oct 21
First Quarter
Oct 29
Full
Nov 6
Last Quarter

Hourly Weather History & Observations

Time (PDT) Temp. Windchill Dew Point Humidity Pressure Visibility Wind Dir Wind Speed Gust Speed Precip Events Conditions
12:00 AM 41.0 °F 39.0 °F 30.2 °F 65% 30.20 in 15.0 mi NNW 3.5 mph - N/A   Mostly Cloudy
1:00 AM 39.2 °F 37.0 °F 30.2 °F 70% 30.20 in 15.0 mi WNW 3.5 mph - N/A   Mostly Cloudy
2:00 AM 37.4 °F - 30.2 °F 75% 30.20 in 15.0 mi West 2.3 mph - N/A   Mostly Cloudy
3:00 AM 37.4 °F - 30.2 °F 75% 30.19 in 15.0 mi Calm Calm - N/A   Mostly Cloudy
4:00 AM 33.8 °F - 28.4 °F 81% 30.19 in 15.0 mi West 2.3 mph - N/A   Mostly Cloudy
5:00 AM 35 °F - 29 °F 72% 30.19 in 15 mi North 2.3 mph - -   Partly Cloudy
5:00 AM 35.6 °F - 30.2 °F 81% 30.19 in 15.0 mi Calm Calm - N/A   Mostly Cloudy
6:00 AM 35.6 °F - 30.2 °F 81% 30.19 in 15.0 mi North 2.3 mph - N/A   Mostly Cloudy
7:00 AM 35.6 °F - 30.2 °F 81% 30.19 in 15.0 mi West 2.3 mph - N/A   Mostly Cloudy
8:00 AM 35.6 °F - 30.2 °F 81% 30.19 in 20.0 mi Calm Calm - N/A   Mostly Cloudy
9:00 AM 35.6 °F - 30.2 °F 81% 30.19 in 20.0 mi Calm Calm - N/A   Overcast
10:00 AM 37.4 °F - 32.0 °F 81% 30.18 in 20.0 mi South 2.3 mph - N/A   Overcast
11:00 AM 39 °F - 32 °F 67% 30.18 in 19 mi East 2.3 mph - -   Overcast
11:00 AM 39.2 °F - 32.0 °F 75% 30.18 in 20.0 mi East 2.3 mph - N/A   Overcast
12:00 PM 41.0 °F - 32.0 °F 70% 30.17 in 20.0 mi Calm Calm - N/A   Overcast
1:00 PM 42.8 °F - 32.0 °F 66% 30.16 in 20.0 mi Calm Calm - N/A   Overcast
2:00 PM 44.6 °F 43.1 °F 32.0 °F 61% 30.14 in 20.0 mi ENE 3.5 mph - N/A   Overcast
3:00 PM 46.4 °F 44.3 °F 32.0 °F 57% 30.13 in 20.0 mi NE 4.6 mph - N/A   Overcast
4:00 PM 46.4 °F 45.2 °F 32.0 °F 57% 30.13 in 20.0 mi East 3.5 mph - N/A   Overcast
5:00 PM 46 °F - 32 °F 47% 30.11 in 19 mi South 3.5 mph - -   Overcast
5:00 PM 46.4 °F 45.2 °F 32.0 °F 57% 30.11 in 20.0 mi South 3.5 mph - N/A   Overcast
6:00 PM 46.4 °F - 32.0 °F 57% 30.11 in 20.0 mi ESE 2.3 mph - N/A   Overcast
7:00 PM 42.8 °F - 32.0 °F 66% 30.10 in 15.0 mi Calm Calm - N/A   Overcast
8:00 PM 41.0 °F - 32.0 °F 70% 30.10 in 15.0 mi West 2.3 mph - N/A   Overcast
9:00 PM 41.0 °F - 33.8 °F 76% 30.09 in 15.0 mi North 2.3 mph - N/A   Overcast
10:00 PM 39.2 °F - 33.8 °F 81% 30.08 in 15.0 mi SSW 2.3 mph - N/A   Overcast